Location: Newark
(12.4436°N, 0.6167°W)
Time: 14:03:11
(UTC+00:00)

deb Explorer IX - Pass Details

Date: 12 December 2019
Orbit: 548 x 1101 km, 38.8° (Epoch: 27 January)

Event Time Altitude Azimuth Distance (km) Brightness Sun altitude
Rises 22:44:38 0° 307° (NW) 3,867 - -69.9°
Reaches altitude 10° 22:47:21 10° 305° (NW) 2,936 - -70.5°
Maximum altitude 22:54:40 77° 221° (SW) 1,118 - -71.9°
Drops below altitude 10° 23:01:44 10° 135° (SE) 2,847 - -73.2°
Sets 23:04:21 0° 134° (SE) 3,744 - -73.7°
